Home > Weather > Landsberg am Lech > Past weeks

Flag for Germany Weather for the Past 2 Weeks in Landsberg am Lech, Bavaria, Germany

Now
39 °F

Partly sunny.


Feels Like: 34 °F
Forecast: 40 / 52 °F
Wind: 7 mph from South

Location: Landsberg

Current Time: Feb 8, 2016 at 10:18:38 AM

Latest Report: Feb 8, 2016 at 9:20 AM


Visibility: N/A

Pressure: 29.77 "Hg (27.67 "Hg at 593m altitude)

Humidity: 75%

Dew point: 32 °F

Location of Landsberg am LechLocation

Historic Weather in Landsberg am Lech — Graph

°F

Landsberg am Lech Temperature Yesterday

Maximum temperature yesterday: 55 °F (at 1:20 PM)
Minimum temperature yesterday: 32 °F (at 3:20 AM)
Average temperature yesterday: 42 °F

High & Low Weather Summary for the Past Weeks

 TemperatureHumidityPressure
High57 °F (Jan 26, 3:20 PM)100% (Jan 29, 1:20 AM)30.54 "Hg (Jan 29, 1:20 AM)
Low28 °F (Jan 24, 8:20 AM)38% (Feb 7, 12:20 PM)29.59 "Hg (Feb 7, 12:20 PM)
Average42 °F76%30.17 "Hg
* Reported Jan 24 8:20 AM — Feb 8 8:20 AM, Landsberg am Lech, Weather by CustomWeather, © 2016

Note: Actual official high and low records may vary slightly from our data, if they occured in-between our weather recording intervals... More about our weather records

Advertising

Landsberg am Lech Weather History for the Previous 24 Hours

 ConditionsComfort  
Time TempWeatherWind HumidityBarometerVisibility
8:20 AM
Mon, Feb 8
36 °FScattered clouds.13 mph75%29.77 "HgN/A
7:20 AM36 °FPassing clouds.12 mph75%29.80 "HgN/A
6:20 AM36 °FPassing clouds.8 mph70%29.80 "HgN/A
5:20 AM39 °FPassing clouds.10 mph65%29.83 "HgN/A
4:20 AM39 °FPartly cloudy.8 mph70%29.83 "HgN/A
3:20 AM39 °FOvercast.12 mph70%29.86 "HgN/A
2:20 AM39 °FOvercast.10 mph75%29.86 "HgN/A
1:20 AM37 °FLight rain. Mostly cloudy.9 mph87%29.89 "HgN/A
12:20 AM37 °FOvercast.10 mph87%29.89 "HgN/A
11:20 PM
Sun, Feb 7
37 °FOvercast.12 mph87%29.89 "HgN/A
10:20 PM37 °FRain. Mostly cloudy.10 mph93%29.92 "HgN/A
9:20 PM39 °FLight rain. Mostly cloudy.16 mph87%29.89 "HgN/A
8:20 PM39 °FLight rain. Mostly cloudy.15 mph87%29.86 "HgN/A
7:20 PM41 °FLight rain. Mostly cloudy.14 mph81%29.83 "HgN/A
6:20 PM45 °FPassing clouds.15 mph76%29.80 "HgN/A
5:20 PM45 °FBroken clouds.9 mph71%29.77 "HgN/A
4:20 PM45 °FBroken clouds.15 mph66%29.74 "HgN/A
3:20 PM50 °FPartly sunny.17 mph50%29.68 "HgN/A
2:20 PM54 °FBroken clouds.12 mph44%29.62 "HgN/A
1:20 PM55 °FPartly sunny.9 mph38%29.59 "HgN/A
12:20 PM54 °FPartly sunny.15 mph38%29.59 "HgN/A
11:20 AM52 °FPartly sunny.12 mph41%29.62 "HgN/A
10:57 AM50 °FPartly sunny.12 mph43%29.62 "HgN/A
10:20 AM45 °FPartly sunny.7 mph57%29.62 "HgN/A
Weather by CustomWeather, © 2016

See weather overviewHow to use our weather pages